Home > Weather > Leirvik > Past weeks

Flag for Norway Past Weather in Leirvik, Norway — Yesterday and Last 2 Weeks

Now
55 °F

Sunny.


Feels Like: 53 °F
Forecast: 46 / 57 °F
Wind: 9 mph from Northwest

Location: Stord / Soerstokken

Current Time: May 27, 2016 at 10:16:10 PM

Latest Report: May 27, 2016 at 7:20 PM


Visibility: 10 mi

Pressure: 30.15 "Hg

Humidity: 72%

Dew Point: 46 °F

Location of LeirvikLocation

Past Weather in Leirvik — Graph

°F

Leirvik Temperature Yesterday

Maximum temperature yesterday: 66 °F (at 1:50 PM)
Minimum temperature yesterday: 45 °F (at 11:50 PM)
Average temperature yesterday: 58 °F

High & Low Weather Summary for the Past Weeks

 TemperatureHumidityPressure
High66 °F (May 25, 12:50 PM)100% (May 17, 5:50 AM)30.15 "Hg (May 17, 5:50 AM)
Low43 °F (May 17, 5:50 AM)35% (May 25, 12:50 PM)29.62 "Hg (May 20, 8:20 AM)
Average52 °F75%29.90 "Hg
* Reported May 12 7:20 PM — May 27 7:20 PM, Leirvik, Weather by CustomWeather, © 2016

Note: Actual official high and low records may vary slightly from our data, if they occured in-between our weather recording intervals... More about our weather records

Advertising

Leirvik Weather History for the Previous 24 Hours

Scroll right to see more
 ConditionsComfort  
Time TempWeatherWind HumidityBarometerVisibility
7:20 PM
Fri, May 27
55 °FSunny.9 mph72%30.15 "Hg10 mi
6:50 PM55 °FSunny.8 mph72%30.15 "Hg10 mi
6:20 PM57 °FPassing clouds.7 mph67%30.15 "HgN/A
3:50 PM59 °FPassing clouds.8 mph68%30.15 "HgN/A
3:20 PM59 °FCool.9 mph68%30.15 "HgN/A
2:50 PM59 °FPassing clouds.8 mph68%30.15 "HgN/A
1:20 PM59 °FCool.5 mph68%30.15 "HgN/A
12:20 PM55 °FSunny.7 mph77%30.15 "Hg10 mi
11:50 AM55 °FSunny.8 mph77%30.15 "Hg10 mi
10:50 AM54 °FSunny.3 mph77%30.15 "Hg10 mi
10:20 AM50 °FPassing clouds.3 mph94%30.15 "HgN/A
9:50 AM48 °FFog.3 mph100%30.15 "Hg2 mi
9:20 AM46 °FLight fog.1 mph100%30.15 "HgN/A
8:50 AM46 °FCool.N/A100%30.15 "HgN/A
8:20 AM45 °FQuite cool.N/A100%30.15 "HgN/A
12:20 AM45 °FFog.1 mph100%30.12 "Hg0 mi
11:50 PM
Thu, May 26
45 °FFog.No wind100%30.12 "HgN/A
11:20 PM46 °FFog.1 mph93%30.12 "HgN/A
10:50 PM46 °FFog.1 mph93%30.12 "HgN/A
10:20 PM48 °FFog.1 mph87%30.12 "HgN/A
Weather by CustomWeather, © 2016

See weather overviewHow to use our weather pages